[[{"header":{"parameterUnit":"m.s-1","parameterCategory":1,"la1":30.2991,"la2":30.254,"lo1":-89.0895,"lo2":-89.0444,"dy":0.0017,"dx":0.0017,"nx":28,"ny":28,"refTime":"2024-04-23T21:00:00:Z","depth":0,"parameterNumber":2,"parameterNumberName":"U-component_of_WINDS"},"data":[0,0,0,0,0,0,0,0,0,0,0,0,0,0,0,0,0,0,0,0,0,0,0,0,0,0,0,0,0,0,0,0,0,0,0,0,0,0,0,0,0,0,0,0,0,0,0,0,0,0,0,0,0,0,0,0,0,0,-1.8138,-1.8137,0,-1.8021,-1.802,-1.8018,-1.7934,-1.7934,-1.7933,-1.7932,-1.7809,-1.7806,-1.7803,0,0,0,0,0,0,0,0,0,0,0,0,0,-1.8287,-1.8285,-1.8138,-1.8137,-1.8135,-1.8021,-1.802,-1.8018,-1.7934,-1.7934,-1.7933,-1.7932,-1.781,-1.7806,-1.7803,0,0,0,0,0,0,0,0,0,0,0,0,0,-1.8202,-1.8284,-1.8139,-1.808,-1.8074,-1.8022,-1.802,-1.8018,-1.7935,-1.7934,-1.7933,-1.7932,-1.7811,-1.7807,-1.7803,-1.7798,0,0,-1.7791,-1.7789,0,0,0,0,0,0,0,0,-1.8207,-1.8196,-1.809,-1.8084,-1.8077,-1.7991,-1.8027,-1.7944,-1.7935,-1.7987,-1.7932,-1.7931,-1.787,-1.7861,-1.7841,-1.7793,-1.7787,-1.779,-1.7788,-1.7786,-1.7785,0,0,0,0,0,0,0,-1.8213,-1.8201,-1.8092,-1.8089,-1.808,-1.8059,-1.8046,-1.8011,-1.7936,-1.7983,-1.7976,-1.7964,-1.7866,-1.7845,-1.7838,-1.7785,-1.779,-1.7787,-1.7784,-1.7783,-1.7728,-1.7729,0,0,0,0,0,0,-1.8228,-1.8206,-1.8095,-1.8088,-1.8141,-1.8057,-1.8042,-1.802,-1.7936,-1.7922,-1.7965,-1.796,-1.7853,-1.7842,-1.7833,-1.7823,-1.7786,-1.7782,-1.778,-1.7727,-1.7729,-1.773,0,0,0,0,0,0,-1.8232,-1.8219,-1.81,-1.8146,-1.8129,-1.8056,-1.8031,-1.8018,-1.7997,-1.7922,-1.7908,-1.7957,-1.7851,-1.7839,-1.7808,-1.7817,-1.7781,-1.7777,-1.7726,-1.7728,-1.7729,-1.7803,0,0,0,0,0,0,-1.8236,-1.8221,-1.8219,-1.8146,-1.8127,-1.8078,-1.8032,-1.8016,-1.7991,-1.7984,-1.7912,-1.7899,-1.785,-1.7815,-1.7804,-1.7811,-1.7774,-1.7725,-1.7727,-1.7729,-1.7799,-1.7806,-1.7813,0,0,0,0,0,-1.8242,-1.8243,-1.8219,-1.8206,-1.8123,-1.8079,-1.8068,-1.8012,-1.7992,-1.7989,-1.7941,-1.7901,-1.7819,-1.7812,-1.78,-1.7806,-1.7724,-1.7726,-1.7729,-1.7796,-1.7805,-1.7813,0,0,0,0,0,0,-1.8317,-1.8232,-1.8205,-1.8183,-1.8139,-1.8065,-1.8059,-1.8023,-1.7983,-1.7978,-1.791,-1.7894,-1.7871,-1.7835,-1.783,-1.7798,-1.7766,-1.7766,-1.7822,-1.783,-1.7837,-1.7845,-1.777,0,0,0,0,0,-1.8331,-1.8304,-1.8231,-1.8218,-1.8198,-1.8133,-1.8111,-1.8073,-1.8024,-1.8005,-1.7954,-1.7908,-1.7871,-1.7849,-1.7811,-1.7794,-1.7777,-1.7792,-1.7799,-1.7805,-1.7805,-1.7794,-1.78,-1.7737,-1.7737,-1.7737,0,0,-1.836,-1.831,-1.8296,-1.8232,-1.8193,-1.8166,-1.8117,-1.809,-1.8068,-1.8,-1.7968,-1.7931,-1.7874,-1.7851,-1.7838,-1.782,-1.7819,-1.7808,-1.7813,-1.781,-1.7797,-1.7803,-1.7809,-1.7738,-1.7738,-1.7738,0,0,-1.8397,-1.8357,-1.8343,-1.8306,-1.8249,-1.8206,-1.8203,-1.8135,-1.8107,-1.8075,-1.8024,-1.7997,-1.7935,-1.7898,-1.787,-1.7897,-1.7858,-1.7886,-1.7922,-1.7912,-1.7917,-1.7921,-1.7931,-1.7935,-1.7887,-1.7887,-1.7887,0,-1.8439,-1.8397,-1.834,-1.8316,-1.8289,-1.8228,-1.8213,-1.8179,-1.8113,-1.8095,-1.8077,-1.8,-1.7957,-1.7925,-1.7932,-1.7911,-1.7905,-1.7894,-1.7921,-1.7925,-1.7928,-1.7936,-1.794,-1.7891,-1.7891,-1.789,-1.789,0,-1.8452,-1.8423,-1.8418,-1.8357,-1.833,-1.8311,-1.8251,-1.823,-1.8194,-1.8153,-1.8122,-1.8069,-1.802,-1.801,-1.7974,-1.7973,-1.7964,-1.7934,-1.7901,-1.7939,-1.7946,-1.7948,-1.7897,-1.7895,-1.7894,-1.7893,0,0,-1.8531,-1.8441,-1.844,-1.8413,-1.8347,-1.8323,-1.8301,-1.8255,-1.8239,-1.8195,-1.8175,-1.8126,-1.8099,-1.8068,-1.8027,-1.8019,-1.8044,-1.799,-1.7988,-1.8003,-1.804,-1.8063,-1.8067,-1.8019,-1.8019,-1.802,-1.8045,0,-1.8559,-1.8518,-1.8467,-1.8443,-1.8416,-1.8358,-1.8339,-1.8297,-1.8258,-1.8229,-1.8186,-1.8153,-1.8119,-1.8101,-1.809,-1.8044,-1.8051,-1.8041,-1.7999,-1.7998,-1.8015,-1.8071,-1.8094,-1.812,-1.8047,-1.8048,-1.8048,0,-1.8585,-1.8547,-1.8521,-1.8458,-1.8445,-1.8429,-1.8384,-1.8357,-1.8307,-1.828,-1.8247,-1.8205,-1.8178,-1.815,-1.8113,-1.8108,-1.8088,-1.8063,-1.8062,-1.8055,-1.8025,-1.8066,-1.8127,-1.8132,-1.8052,-1.8051,-1.8051,0,-1.8646,-1.8588,-1.8565,-1.8543,-1.847,-1.846,-1.8429,-1.8379,-1.8355,-1.8315,-1.8299,-1.8256,-1.8232,-1.82,-1.8147,-1.8131,-1.8116,-1.8082,-1.8092,-1.8093,-1.809,-1.8091,-1.815,-1.8078,-1.8078,-1.8078,-1.8078,0,-1.8682,-1.8668,-1.8592,-1.8578,-1.8561,-1.8503,-1.8488,-1.8451,-1.8407,-1.8385,-1.8332,-1.8312,-1.8243,-1.8215,-1.8173,-1.8149,-1.8139,-1.8116,-1.8104,-1.812,-1.8123,-1.8105,-1.8102,-1.8079,-1.8079,-1.8079,-1.8079,0,-1.8747,-1.8696,-1.8667,-1.8601,-1.8584,-1.8575,-1.8518,-1.8502,-1.8461,-1.8434,-1.8424,-1.836,-1.8324,-1.8268,-1.8215,-1.8187,-1.8171,-1.8152,-1.8188,-1.8181,-1.8194,-1.8194,-1.8243,-1.8246,-1.8174,-1.8174,-1.8175,0,-1.8773,-1.8762,-1.8696,-1.8678,-1.8649,-1.862,-1.8596,-1.8539,-1.8516,-1.846,-1.8451,-1.8412,-1.8377,-1.8322,-1.827,-1.823,-1.821,-1.823,-1.8204,-1.822,-1.8211,-1.8212,-1.8211,-1.8236,-1.8238,-1.8238,-1.8239,0,-1.8825,-1.8801,-1.8769,-1.8729,-1.8703,-1.8668,-1.863,-1.8618,-1.8553,-1.853,-1.8493,-1.8467,-1.8414,-1.8376,-1.8328,-1.8295,-1.8256,-1.8248,-1.8248,-1.8264,-1.8285,-1.8274,-1.8205,-1.8247,-1.8246,-1.8246,-1.8245,-1.8245,-1.8871,-1.8859,-1.8811,-1.8778,-1.8744,-1.8711,-1.8693,-1.8652,-1.8621,-1.8575,-1.8543,-1.8509,-1.846,-1.8393,-1.8363,-1.8335,-1.8318,-1.8318,-1.8318,-1.8318,-1.8325,-1.8291,-1.8326,-1.8326,-1.8325,-1.8325,-1.8325,0,-1.8921,-1.8888,-1.8858,-1.8808,-1.8783,-1.8751,-1.8708,-1.8688,-1.8659,-1.8618,-1.8586,-1.8545,-1.8508,-1.8455,-1.8413,-1.8401,-1.8383,-1.8392,-1.8392,-1.8386,-1.8342,-1.8346,-1.8408,-1.8408,-1.8408,-1.8408,-1.8408,-1.8408,-1.8943,-1.8921,-1.8892,-1.8853,-1.8819,-1.8787,-1.8765,-1.8734,-1.8702,-1.8659,-1.8628,-1.8595,-1.8548,-1.8504,-1.8469,-1.8454,-1.8441,-1.8457,-1.8436,-1.8396,-1.8389,-1.8381,-1.8385,-1.8454,-1.8454,-1.8482,-1.8483,-1.8483]},{"header":{"parameterUnit":"m.s-1","parameterCategory":1,"la1":30.2991,"la2":30.254,"lo1":-89.0895,"lo2":-89.0444,"dy":0.0017,"dx":0.0017,"nx":28,"ny":28,"refTime":"2024-04-23T21:00:00:Z","depth":0,"parameterNumber":3,"parameterNumberName":"V-component_of_WINDS"},"data":[0,0,0,0,0,0,0,0,0,0,0,0,0,0,0,0,0,0,0,0,0,0,0,0,0,0,0,0,0,0,0,0,0,0,0,0,0,0,0,0,0,0,0,0,0,0,0,0,0,0,0,0,0,0,0,0,0,0,2.0447,2.0446,0,2.0361,2.036,2.0359,2.0365,2.0366,2.0367,2.0368,2.0276,2.0273,2.0269,0,0,0,0,0,0,0,0,0,0,0,0,0,2.0614,2.0611,2.0447,2.0446,2.0445,2.0361,2.036,2.0359,2.0364,2.0366,2.0368,2.0369,2.0277,2.0273,2.0269,0,0,0,0,0,0,0,0,0,0,0,0,0,2.0536,2.061,2.0447,2.0438,2.0436,2.0361,2.036,2.0358,2.0364,2.0366,2.0368,2.037,2.0279,2.0273,2.0268,2.0196,0,0,2.0251,2.0249,0,0,0,0,0,0,0,0,2.054,2.0529,2.044,2.0438,2.0436,2.0376,2.0385,2.0304,2.0364,2.0391,2.0368,2.0371,2.0307,2.03,2.0279,2.0191,2.0187,2.0251,2.0247,2.0245,2.0243,0,0,0,0,0,0,0,2.0545,2.0533,2.0413,2.0439,2.0437,2.0437,2.0428,2.0369,2.0339,2.0389,2.0389,2.0379,2.0307,2.0284,2.0277,2.0186,2.0251,2.0246,2.0243,2.024,2.0035,2.0032,0,0,0,0,0,0,2.0553,2.0538,2.0416,2.041,2.0494,2.0432,2.0422,2.0393,2.034,2.0334,2.0378,2.038,2.0293,2.0283,2.0274,2.0185,2.0245,2.024,2.0237,2.0037,2.0034,2.0032,0,0,0,0,0,0,2.0557,2.0543,2.0419,2.0474,2.0458,2.0427,2.0394,2.039,2.0368,2.0332,2.0326,2.0361,2.0294,2.0281,2.0215,2.0182,2.0237,2.0232,2.0039,2.0036,2.0033,2.0008,0,0,0,0,0,0,2.0562,2.0544,2.0516,2.0473,2.0455,2.0363,2.0392,2.0387,2.0359,2.0361,2.0314,2.0308,2.0294,2.0223,2.021,2.0175,2.0228,2.0042,2.0038,2.0034,2.0011,2.0004,1.9998,0,0,0,0,0,2.0568,2.0512,2.0515,2.05,2.0421,2.0361,2.035,2.0337,2.0356,2.0328,2.0305,2.031,2.0188,2.0217,2.0201,2.0165,2.0044,2.0039,2.0034,2.0014,2.0005,1.9998,0,0,0,0,0,0,2.055,2.0506,2.0509,2.0438,2.0403,2.0362,2.0326,2.0328,2.0286,2.0289,2.0274,2.0263,2.0196,2.0174,2.0206,2.0092,2.0119,2.011,2.0109,2.01,2.0093,2.0099,2.0224,0,0,0,0,0,2.0538,2.0494,2.0458,2.0398,2.0381,2.0357,2.033,2.0323,2.0286,2.0271,2.0243,2.0205,2.0159,2.0129,2.0084,2.0009,1.9998,1.9976,1.997,1.9964,1.9957,1.9915,1.9905,2.0016,2.0016,2.0016,0,0,2.0512,2.0483,2.0456,2.0394,2.0366,2.032,2.0344,2.0294,2.0259,2.0263,2.0199,2.0177,2.0134,2.0064,2.0031,2.0043,1.9924,1.9958,1.9954,1.9949,1.9909,1.9899,1.9889,2.0012,2.0013,2.0013,0,0,2.0441,2.0415,2.0363,2.0336,2.0294,2.0279,2.0266,2.0225,2.0211,2.0147,2.0149,2.0107,2.0027,1.9997,1.9971,1.9891,1.9893,1.9877,1.9841,1.98,1.9792,1.9784,1.9754,1.9744,1.987,1.987,1.987,0,2.0414,2.0346,2.0336,2.0285,2.0258,2.0261,2.0208,2.0181,2.0126,2.0107,2.0122,2.0023,1.9994,1.9917,1.9897,1.9877,1.9861,1.9881,1.9794,1.9786,1.9779,1.975,1.9739,1.9868,1.9869,1.9869,1.9869,0,2.0314,2.0267,2.0229,2.0178,2.0147,2.0095,2.0076,2.0046,2.0042,2.0025,1.9959,1.9926,1.9875,1.9856,1.9851,1.9777,1.9786,1.9798,1.9824,1.9766,1.9739,1.9729,1.9866,1.9866,1.9867,1.9867,0,0,2.0227,2.0173,2.0159,2.0136,2.0092,2.0054,2.0003,1.9955,1.9928,1.9891,1.9847,1.978,1.9791,1.9762,1.9754,1.9719,1.9657,1.9735,1.9734,1.9721,1.9573,1.9564,1.9551,1.966,1.9658,1.9656,1.9576,0,2.0151,2.0061,2.0051,1.997,1.9926,1.993,1.9885,1.9852,1.9835,1.9795,1.9775,1.9728,1.9747,1.9729,1.9695,1.9672,1.9627,1.9678,1.9617,1.9615,1.9626,1.9537,1.9527,1.9453,1.9566,1.9564,1.9563,0,2.0049,2.0011,1.9926,1.9889,1.987,1.983,1.9785,1.9747,1.971,1.97,1.9668,1.9665,1.9612,1.9642,1.9567,1.9601,1.9576,1.9561,1.9558,1.955,1.9584,1.9526,1.9429,1.9418,1.9546,1.9548,1.9549,0,1.9993,1.992,1.9861,1.9841,1.9796,1.9768,1.9748,1.9713,1.9685,1.9645,1.9627,1.9581,1.9556,1.952,1.9505,1.9528,1.943,1.9459,1.9419,1.942,1.9397,1.9398,1.9294,1.9383,1.9384,1.9384,1.9384,0,1.9908,1.9855,1.9835,1.9798,1.9739,1.9729,1.9671,1.9652,1.9621,1.958,1.958,1.9541,1.9524,1.9482,1.947,1.9409,1.9398,1.9388,1.9385,1.9387,1.9388,1.9368,1.9373,1.9381,1.9381,1.9382,1.9383,0,1.9834,1.9818,1.9753,1.9717,1.9707,1.9665,1.9634,1.9597,1.9582,1.953,1.9517,1.9491,1.9442,1.9424,1.9364,1.9356,1.9285,1.9287,1.9298,1.9297,1.9258,1.9261,1.9136,1.9118,1.9221,1.922,1.9219,0,1.978,1.974,1.97,1.9674,1.9653,1.9609,1.9581,1.957,1.954,1.9496,1.9465,1.9417,1.9377,1.9298,1.9274,1.9228,1.9227,1.9187,1.922,1.9224,1.9225,1.9227,1.9223,1.918,1.9179,1.9178,1.9177,0,1.9685,1.968,1.964,1.9597,1.9564,1.953,1.9496,1.9474,1.9457,1.9424,1.9375,1.9344,1.9284,1.9235,1.9188,1.9166,1.9168,1.9167,1.9156,1.9156,1.9164,1.9158,1.9279,1.917,1.917,1.9171,1.9171,1.9172,1.9618,1.9583,1.9551,1.9506,1.948,1.945,1.9414,1.9395,1.9354,1.9305,1.9301,1.9247,1.9212,1.915,1.9126,1.9083,1.9094,1.9077,1.9073,1.9068,1.9065,1.9172,1.9075,1.9075,1.9075,1.9075,1.9076,0,1.9523,1.9502,1.9462,1.9416,1.9381,1.9389,1.9353,1.9323,1.9276,1.9244,1.9206,1.9149,1.9103,1.9076,1.9029,1.9,1.9,1.8988,1.8989,1.8984,1.9059,1.9073,1.8989,1.8989,1.8989,1.8989,1.8989,1.8989,1.9469,1.941,1.9401,1.933,1.9309,1.9258,1.9237,1.9208,1.9183,1.912,1.9082,1.9066,1.9035,1.8987,1.8944,1.8937,1.8919,1.8906,1.89,1.897,1.8979,1.8987,1.9001,1.8903,1.8903,1.8829,1.8829,1.8828]}]]